| time (UTC) | temp F | wind direction | speed MPH | gust MPH | rain 1hr in | rain 24hr in | rain mn in | humidity % | barometer mb |
| 20260904050033 | 64 | 276 | 3.0 | 10.0 | 0.01 | 0.05 | 0.05 | 84 | 1013.2 |
| 20260904044542 | 64 | 273 | 5.0 | 8.0 | 0.01 | 0.05 | 0.05 | 83 | 1013.2 |
| 20260904043034 | 64 | 295 | 3.0 | 6.0 | 0.01 | 0.05 | 0.05 | 82 | 1013.0 |
| 20260904040030 | 65 | 284 | 1.0 | 5.0 | 0.00 | 0.04 | 0.04 | 81 | 1013.3 |
| 20260904034531 | 65 | 276 | 2.0 | 7.0 | 0.00 | 0.04 | 0.04 | 80 | 1013.2 |
| 20260904033028 | 65 | 267 | 4.0 | 9.0 | 0.00 | 0.04 | 0.04 | 81 | 1013.3 |
| 20260904030029 | 65 | 291 | 0.0 | 7.0 | 0.00 | 0.04 | 0.04 | 81 | 1012.8 |
| 20260904024529 | 65 | 285 | 0.0 | 2.0 | 0.00 | 0.04 | 0.04 | 79 | 1013.2 |
| 20260904023028 | 66 | 286 | 3.0 | 4.0 | 0.00 | 0.04 | 0.04 | 79 | 1013.1 |
| 20260904021627 | 66 | 285 | 1.0 | 3.0 | 0.00 | 0.04 | 0.04 | 78 | 1013.3 |
| 20260904020028 | 66 | 295 | 0.0 | 2.0 | 0.00 | 0.04 | 0.04 | 78 | 1013.3 |
| 20260904014527 | 66 | 335 | 1.0 | 3.0 | 0.00 | 0.04 | 0.04 | 77 | 1013.4 |
| 20260904013032 | 66 | 259 | 6.0 | 9.0 | 0.00 | 0.04 | 0.04 | 78 | 1012.8 |
| 20260904010040 | 66 | 355 | 0.0 | 3.0 | 0.00 | 0.04 | 0.04 | 77 | 1013.3 |
| 20260904004526 | 66 | 292 | 0.0 | 2.0 | 0.00 | 0.04 | 0.04 | 76 | 1013.1 |
| 20260904003025 | 67 | 292 | 1.0 | 3.0 | 0.00 | 0.04 | 0.04 | 74 | 1013.1 |
| 20260904000025 | 67 | 295 | 1.0 | 8.0 | 0.00 | 0.04 | 0.04 | 72 | 1012.6 |
| 20260903234533 | 67 | 275 | 3.0 | 6.0 | 0.00 | 0.04 | 0.04 | 70 | 1012.6 |
| 20260903233025 | 67 | 319 | 1.0 | 2.0 | 0.00 | 0.04 | 0.04 | 69 | 1012.7 |
| 20260903231625 | 68 | 323 | 0.0 | 3.0 | 0.00 | 0.04 | 0.04 | 69 | 1012.6 |
| 20260903230025 | 68 | 294 | 0.0 | 3.0 | 0.00 | 0.04 | 0.04 | 69 | 1012.4 |
| 20260903224527 | 68 | 296 | 2.0 | 4.0 | 0.00 | 0.04 | 0.04 | 68 | 1012.2 |
| 20260903223033 | 68 | 295 | 0.0 | 4.0 | 0.00 | 0.04 | 0.04 | 67 | 1012.0 |
| 20260903221623 | 68 | 296 | 2.0 | 5.0 | 0.00 | 0.04 | 0.04 | 67 | 1011.9 |
| 20260903220035 | 68 | 293 | 1.0 | 5.0 | 0.00 | 0.04 | 0.04 | 66 | 1012.0 |
| 20260903214522 | 68 | 355 | 1.0 | 3.0 | 0.00 | 0.04 | 0.04 | 67 | 1012.2 |
| 20260903213033 | 68 | 304 | 0.0 | 3.0 | 0.00 | 0.04 | 0.04 | 66 | 1012.4 |
| 20260903211625 | 68 | 325 | 0.0 | 3.0 | 0.00 | 0.04 | 0.04 | 67 | 1012.4 |
| 20260903210022 | 68 | 292 | 0.0 | 4.0 | 0.00 | 0.04 | 0.04 | 68 | 1012.4 |
| 20260903204521 | 68 | 292 | 0.0 | 4.0 | 0.00 | 0.04 | 0.04 | 68 | 1012.4 |
| 20260903203020 | 68 | 314 | 0.0 | 8.0 | 0.00 | 0.04 | 0.04 | 68 | 1012.3 |
| 20260903201620 | 68 | 292 | 0.0 | 3.0 | 0.00 | 0.04 | 0.04 | 67 | 1012.4 |
| 20260903200020 | 69 | 294 | 2.0 | 5.0 | 0.00 | 0.04 | 0.04 | 67 | 1012.3 |
| 20260903194519 | 69 | 273 | 5.0 | 7.0 | 0.00 | 0.04 | 0.04 | 66 | 1012.3 |
| 20260903193018 | 69 | 291 | 6.0 | 8.0 | 0.00 | 0.04 | 0.04 | 65 | 1012.3 |
| 20260903190015 | 68 | 291 | 5.0 | 10.0 | 0.00 | 0.04 | 0.04 | 67 | 1011.8 |
| 20260903184513 | 68 | 288 | 4.0 | 11.0 | 0.00 | 0.04 | 0.04 | 68 | 1012.1 |
| 20260903183113 | 67 | 286 | 5.0 | 10.0 | 0.00 | 0.04 | 0.04 | 69 | 1012.2 |
| 20260903181611 | 67 | 285 | 3.0 | 4.0 | 0.00 | 0.04 | 0.04 | 69 | 1012.5 |
| 20260903180012 | 67 | 273 | 3.0 | 6.0 | 0.00 | 0.04 | 0.04 | 70 | 1012.6 |
| 20260903174524 | 66 | 276 | 3.0 | 5.0 | 0.00 | 0.04 | 0.04 | 74 | 1012.4 |
| 20260903173017 | 65 | 264 | 1.0 | 7.0 | 0.02 | 0.04 | 0.04 | 80 | 1012.4 |
| 20260903170004 | 64 | 289 | 1.0 | 4.0 | 0.04 | 0.04 | 0.04 | 77 | 1012.3 |
| 20260903164504 | 64 | 273 | 1.0 | 10.0 | 0.04 | 0.04 | 0.04 | 76 | 1012.6 |
| 20260903163002 | 64 | 5 | 0.0 | 2.0 | 0.03 | 0.03 | 0.03 | 70 | 1013.3 |
| 20260903161701 | 65 | 267 | 0.0 | 1.0 | 0.00 | 0.00 | 0.00 | 66 | 1014.2 |
| 20260903160059 | 65 | 267 | 1.0 | 7.0 | 0.00 | 0.00 | 0.00 | 66 | 1013.2 |
| 20260903154559 | 65 | 269 | 1.0 | 6.0 | 0.00 | 0.00 | 0.00 | 65 | 1012.9 |
| 20260903153057 | 65 | 267 | 1.0 | 7.0 | 0.00 | 0.00 | 0.00 | 65 | 1013.0 |
| 20260903151557 | 65 | 276 | 1.0 | 4.0 | 0.00 | 0.00 | 0.00 | 65 | 1012.8 |
| 20260903150111 | 65 | 278 | 2.0 | 6.0 | 0.00 | 0.00 | 0.00 | 65 | 1012.8 |
| 20260903144552 | 65 | 281 | 0.0 | 2.0 | 0.00 | 0.00 | 0.00 | 64 | 1012.8 |
| 20260903143053 | 65 | 275 | 2.0 | 4.0 | 0.00 | 0.00 | 0.00 | 63 | 1012.5 |
| 20260903141550 | 65 | 273 | 3.0 | 9.0 | 0.00 | 0.00 | 0.00 | 63 | 1012.5 |
| 20260903140051 | 65 | 266 | 4.0 | 8.0 | 0.00 | 0.00 | 0.00 | 62 | 1012.4 |
| 20260903134556 | 65 | 263 | 3.0 | 8.0 | 0.00 | 0.00 | 0.00 | 62 | 1012.6 |
| 20260903133053 | 65 | 274 | 0.0 | 6.0 | 0.00 | 0.00 | 0.00 | 61 | 1012.7 |
| 20260903131555 | 64 | 270 | 2.0 | 7.0 | 0.00 | 0.00 | 0.00 | 61 | 1012.6 |
| 20260903130054 | 64 | 271 | 3.0 | 8.0 | 0.00 | 0.00 | 0.00 | 61 | 1012.3 |
| 20260903124546 | 64 | 270 | 2.0 | 6.0 | 0.00 | 0.00 | 0.00 | 62 | 1012.4 |
| 20260903123046 | 64 | 281 | 3.0 | 6.0 | 0.00 | 0.00 | 0.00 | 62 | 1012.5 |
| 20260903121547 | 64 | 266 | 2.0 | 6.0 | 0.00 | 0.00 | 0.00 | 62 | 1012.6 |
| 20260903120047 | 64 | 265 | 2.0 | 6.0 | 0.00 | 0.02 | 0.00 | 61 | 1012.7 |
| 20260903114546 | 64 | 269 | 1.0 | 6.0 | 0.00 | 0.02 | 0.00 | 62 | 1012.6 |
| 20260903113046 | 63 | 288 | 2.0 | 6.0 | 0.00 | 0.02 | 0.00 | 62 | 1012.8 |
| 20260903111618 | 63 | 288 | 1.0 | 7.0 | 0.00 | 0.02 | 0.00 | 62 | 1012.7 |
| 20260903110047 | 63 | 274 | 2.0 | 4.0 | 0.00 | 0.12 | 0.00 | 63 | 1012.4 |
| 20260903104557 | 63 | 261 | 1.0 | 5.0 | 0.00 | 0.12 | 0.00 | 63 | 1012.4 |
| 20260903103043 | 63 | 276 | 1.0 | 4.0 | 0.00 | 0.12 | 0.00 | 63 | 1012.4 |
| 20260903101546 | 62 | 274 | 3.0 | 7.0 | 0.00 | 0.12 | 0.00 | 63 | 1012.5 |
| 20260903100042 | 62 | 267 | 2.0 | 3.0 | 0.00 | 0.12 | 0.00 | 65 | 1012.4 |
| 20260903094542 | 62 | 268 | 1.0 | 4.0 | 0.00 | 0.12 | 0.00 | 65 | 1012.5 |
| 20260903093044 | 62 | 275 | 1.0 | 3.0 | 0.00 | 0.12 | 0.00 | 64 | 1012.6 |
| 20260903091540 | 62 | 277 | 1.0 | 7.0 | 0.00 | 0.12 | 0.00 | 64 | 1012.3 |
| 20260903090047 | 62 | 283 | 2.0 | 4.0 | 0.00 | 0.12 | 0.00 | 63 | 1012.3 |
| 20260903084538 | 63 | 284 | 2.0 | 6.0 | 0.00 | 0.12 | 0.00 | 62 | 1012.3 |
| 20260903083036 | 63 | 272 | 2.0 | 4.0 | 0.00 | 0.12 | 0.00 | 63 | 1012.4 |
| 20260903081536 | 63 | 265 | 2.0 | 7.0 | 0.00 | 0.12 | 0.00 | 62 | 1012.5 |
| 20260903080200 | 63 | 268 | 3.0 | 6.0 | 0.00 | 0.12 | 0.00 | 62 | 1012.6 |
| 20260903074537 | 63 | 275 | 1.0 | 4.0 | 0.00 | 0.12 | 0.00 | 63 | 1012.7 |
| 20260903073041 | 63 | 265 | 2.0 | 4.0 | 0.00 | 0.12 | 0.00 | 62 | 1012.8 |
| 20260903071530 | 63 | 267 | 0.0 | 6.0 | 0.00 | 0.12 | 0.00 | 63 | 1012.8 |
| 20260903070037 | 63 | 275 | 2.0 | 6.0 | 0.00 | 0.12 | 0.00 | 62 | 1012.8 |
| 20260903064528 | 62 | 277 | 2.0 | 6.0 | 0.00 | 0.12 | 0.00 | 66 | 1012.8 |
| 20260903063029 | 62 | 251 | 0.0 | 0.0 | 0.00 | 0.12 | 0.00 | 66 | 1012.8 |
| 20260903061535 | 63 | 244 | 0.0 | 0.0 | 0.00 | 0.12 | 0.00 | 65 | 1012.7 |
| 20260903060030 | 63 | 244 | 0.0 | 0.0 | 0.00 | 0.12 | 0.00 | 65 | 1012.8 |
| 20260903054523 | 63 | 244 | 0.0 | 0.0 | 0.00 | 0.12 | 0.00 | 65 | 1012.5 |
| 20260903053021 | 63 | 244 | 0.0 | 0.0 | 0.00 | 0.12 | 0.00 | 65 | 1012.6 |
| 20260903051519 | 64 | 29 | 0.0 | 0.0 | 0.00 | 0.12 | 0.00 | 65 | 1012.6 |